Current Version              Previous Version:    01  02  03  04  05  06  07  08  09  10  11  12  13  14  15  16  17  18  19  20  21  22  23  24  25  26  27  28  29  30  
   31  32  33  34  35  36  37  38  39  40  41  42  43  44  45  46  47  48  49  50  51  52  53  54  55  56  57  58  59  60  

[Printable]
069
ASUS44 KFWD 192101
RWRTX
NORTH TEXAS HOURLY WEATHER ROUNDUP
NATIONAL WEATHER SERVICE FORT WORTH TX
300 PM CST FRI DEC 19 2014

NOTE: "FAIR" INDICATES FEW OR NO CLOUDS BELOW 12,000 FEET WITH NO
SIGNIFICANT WEATHER AND/OR OBSTRUCTIONS TO VISIBILITY.

TXZ118-119-192200-
DALLAS/FORT WORTH METROPLEX

CITY           SKY/WX    TMP DP  RH WIND       PRES   REMARKS
DFW AIRPORT    CLOUDY    49  45  86 N9        30.15R
DALLAS LOVE    CLOUDY    50  45  83 N6        30.15S HAZE
FTW MEACHAM    CLOUDY    49  44  83 N9        30.15S HAZE
DAL-EXECUTIVE  CLOUDY    50  46  86 N6        30.14R FOG
FTW-ALLIANCE   CLOUDY    47  43  86 N10       30.16R
FTW-SPINKS     CLOUDY    48  46  93 N9        30.16S FOG
ARLINGTON      CLOUDY    50  44  80 N9        30.15S
GRAND PRAIRIE  CLOUDY    48  46  93 N7        30.16S
ADDISON        CLOUDY    48  45  87 NE7       30.16R FOG
MESQUITE       CLOUDY    48  46  93 N5        30.15S FOG
LANCASTER      CLOUDY    48  45  89 N7        30.16R FOG
$$

TXZ091>094-102>105-117-120-121-131>134-192200-
NORTH CENTRAL TEXAS

CITY           SKY/WX    TMP DP  RH WIND       PRES   REMARKS
SHRMAN/DENISON CLOUDY    47  45  94 CALM      30.18R
BRIDGEPORT     CLOUDY    49  44  83 N6        30.18S
DENTON         CLOUDY    48  43  82 N8        30.16S
MCKINNEY       CLOUDY    48  45  89 N8        30.16R
ROCKWALL       CLOUDY    49  46  91 NE7       30.14R
TERRELL        CLOUDY    50  46  86 NE8       30.15R
WAXAHACHIE     CLOUDY    47  47 100 N7        30.15S FOG
$$

TXZ083>090-098>101-113>116-127>130-139>142-154-155-192200-
WESTERN NORTH TEXAS

CITY           SKY/WX    TMP DP  RH WIND       PRES   REMARKS
WICHITA FALLS  CLOUDY    45  40  82 NE9       30.18S
WF-KICKAPOO    CLOUDY    45  41  84 N7        30.19S
ABILENE        CLOUDY    47  40  76 N6        30.16S
MINERAL WELLS  CLOUDY    48  43  82 N9        30.15R
STEPHENVILLE   CLOUDY    45  43  92 N7        30.17S
COMANCHE       CLOUDY    48  45  91 N6        30.15R
$$

TXZ143>147-156>162-174-175-192200-
CENTRAL TEXAS

CITY           SKY/WX    TMP DP  RH WIND       PRES   REMARKS
WACO           CLOUDY    49  46  90 N10       30.13S
WACO-TSTC      CLOUDY    50  48  93 N13       30.13S
WACO-MCGREGOR  CLOUDY    48  45  87 N8        30.14R
CORSICANA      CLOUDY    49  46  90 N13       30.13S FOG
MEXIA          CLOUDY    49  47  94 N9        30.11R
HEARNE         CLOUDY    53  50  89 NW13      30.10R
TEMPLE         CLOUDY    48  45  87 N10       30.11S
KILLEEN        CLOUDY    49  47  92 N10       30.12R
KILLEEN-SKYLRK CLOUDY    50  43  76 N12       30.09S
FORT HOOD      CLOUDY    49  47  93 N13       30.11S
HAMILTON       CLOUDY    48  48 100 N10       30.14S
LAMPASAS       CLOUDY    50  48  90 N6        30.11S
$$

TXZ095>097-106>112-122>126-135>138-148>153-164>167-192200-
EAST TEXAS

CITY           SKY/WX    TMP DP  RH WIND       PRES   REMARKS
PARIS          CLOUDY    46  43  87 NE8       30.16S
SULPHUR SPRNGS CLOUDY    48  45  90 NE7       30.17R
MINEOLA        CLOUDY    48  46  93 N7        30.14S FOG
TYLER          CLOUDY    50  46  86 N7        30.11R
LONGVIEW       CLOUDY    49  45  86 NE10      30.11R
MARSHALL       CLOUDY    50  47  91 NE3       30.13F
PALESTINE      CLOUDY    52  49  92 N8        30.11R
JACKSONVILLE   CLOUDY    49  48  96 NE6       30.10S
NACOGDOCHES    CLOUDY    52  48  87 N6        30.08S
LUFKIN         CLOUDY    55  49  80 NE6       30.07R
$$

SUPPLEMENTAL OBSERVATIONS (CENTRAL)

CITY           SKY/WX    TMP DP  RH WIND       PRES   REMARKS
$$

SUPPLEMENTAL OBSERVATIONS (WEST)

CITY           SKY/WX    TMP DP  RH WIND       PRES   REMARKS
$$

SUPPLEMENTAL OBSERVATIONS (EAST)

CITY           SKY/WX    TMP DP  RH WIND       PRES   REMARKS
$$

SUPPLEMENTAL OBSERVATIONS ARE A COLLECTION OF AUTOMATED INSTRUMENTS
THAT ARE MAINTAINED BY A VARIETY OF FEDERAL AND STATE AGENCIES.
CERTAIN ELEMENTS...SUCH AS HUMIDITY VALUES AND SUSTAINED WIND
SPEEDS...MAY BE APPROXIMATED.